Millville, NJ

10:45 AM EDT on June 28, 2017 (GMT -0400)
Millville Municipal

Weather History for KMIV - March, 2013

Change the Weather History Date:

Thursday, March 14, 2013

  Actual Average Record
Temperature  
Mean Temperature 36 °F -  
Max Temperature 45 °F 51 °F 82 °F (1990)
Min Temperature 28 °F 34 °F 16 °F (1992)
Degree Days  
Heating Degree Days 30    
Moisture  
Dew Point 15 °F    
Average Humidity 43    
Maximum Humidity 64    
Minimum Humidity 30    
Precipitation  
Precipitation 0.00 in - - ()
Sea Level Pressure  
Sea Level Pressure 30.00 in    
Wind  
Wind Speed 15 mph (WNW)    
Max Wind Speed 22 mph    
Max Gust Speed 34 mph    
Visibility 10 miles    
Events      
Averages and records for this station are not official NWS values.
T = Trace of Precipitation, MM = Missing Value Source: NWS Daily Summary

Daily Weather History Graph

Daily Weather History Graph

Search for Another Location

Airport or City:

Trip Planner

Search our weather history database for the weather conditions in past years. The results will help you decide how hot, cold, wet, or windy it might be!

Date:

Astronomy

Mar. 14, 2013 Rise Set
Actual Time 7:12 AM EDT 7:06 PM EDT
Civil Twilight 6:46 AM EDT 7:33 PM EDT
Nautical Twilight 6:15 AM EDT 8:04 PM EDT
Astronomical Twilight 5:43 AM EDT 8:35 PM EDT
Moon 8:26 AM EDT (3/14) 10:19 PM EDT (3/14)
Length of Visible Light 12h 47m
Length of Day
11h 53m
Waxing Crescent, 9% of the Moon is Illuminated
Mar 14
Waxing Crescent
Mar 19
First Quarter
Mar 27
Full
Apr 3
Last Quarter
Apr 10
New

Hourly Weather History & Observations

Time (EDT) Temp. Windchill Dew Point Humidity Pressure Visibility Wind Dir Wind Speed Gust Speed Precip Events Conditions
12:54 AM 36.0 °F 26.3 °F 19.0 °F 50% 29.99 in 10.0 mi WNW 16.1 mph - N/A   Clear
1:54 AM 35.1 °F 23.5 °F 12.9 °F 40% 30.00 in 10.0 mi WNW 21.9 mph 34.5 mph N/A   Mostly Cloudy
2:54 AM 34.0 °F 26.6 °F 18.0 °F 52% 30.00 in 10.0 mi West 9.2 mph 17.3 mph N/A   Overcast
3:54 AM 33.1 °F 22.2 °F 16.0 °F 50% 29.99 in 10.0 mi WNW 17.3 mph 23.0 mph N/A   Clear
4:54 AM 32.0 °F 24.8 °F 15.1 °F 50% 29.99 in 10.0 mi NW 8.1 mph - N/A   Clear
5:54 AM 28.0 °F 22.8 °F 17.1 °F 63% 30.00 in 10.0 mi West 4.6 mph - N/A   Clear
6:54 AM 30.0 °F 21.7 °F 19.0 °F 64% 30.01 in 10.0 mi West 9.2 mph - N/A   Clear
7:54 AM 32.0 °F 22.5 °F 19.0 °F 59% 30.03 in 10.0 mi West 12.7 mph 20.7 mph N/A   Partly Cloudy
8:54 AM 34.0 °F 24.2 °F 18.0 °F 52% 30.04 in 10.0 mi NW 15.0 mph 20.7 mph N/A   Overcast
9:54 AM 35.1 °F 24.5 °F 18.0 °F 50% 30.03 in 10.0 mi WNW 18.4 mph 25.3 mph N/A   Overcast
10:54 AM 37.9 °F 27.9 °F 15.1 °F 39% 30.03 in 10.0 mi NW 19.6 mph 34.5 mph N/A   Mostly Cloudy
11:54 AM 39.0 °F 30.3 °F 14.0 °F 36% 30.01 in 10.0 mi WNW 16.1 mph 29.9 mph N/A   Overcast
12:54 PM 39.9 °F 30.8 °F 12.9 °F 33% 30.00 in 10.0 mi WNW 18.4 mph 31.1 mph N/A   Scattered Clouds
1:54 PM 42.1 °F 32.8 °F 12.9 °F 31% 29.97 in 10.0 mi NW 21.9 mph 33.4 mph N/A   Partly Cloudy
2:54 PM 41.0 °F 32.2 °F 12.9 °F 32% 29.95 in 10.0 mi NW 18.4 mph 28.8 mph N/A   Partly Cloudy
3:54 PM 43.0 °F 35.7 °F 12.9 °F 30% 29.94 in 10.0 mi NW 15.0 mph 26.5 mph N/A   Scattered Clouds
4:54 PM 43.0 °F 34.0 °F 12.9 °F 30% 29.95 in 10.0 mi WNW 21.9 mph 29.9 mph N/A   Partly Cloudy
5:54 PM 41.0 °F 33.9 °F 12.9 °F 32% 29.95 in 10.0 mi WNW 12.7 mph 24.2 mph N/A   Scattered Clouds
6:54 PM 39.9 °F 31.8 °F 12.9 °F 33% 29.97 in 10.0 mi WNW 15.0 mph 19.6 mph N/A   Partly Cloudy
7:54 PM 37.0 °F 31.0 °F 12.9 °F 37% 30.00 in 10.0 mi West 8.1 mph - N/A   Clear
8:54 PM 35.1 °F 27.9 °F 14.0 °F 42% 30.01 in 10.0 mi West 9.2 mph - N/A   Clear
9:54 PM 36.0 °F 29.0 °F 14.0 °F 41% 30.01 in 10.0 mi West 9.2 mph - N/A   Clear
10:54 PM 36.0 °F 26.3 °F 14.0 °F 41% 30.02 in 10.0 mi WNW 16.1 mph 23.0 mph N/A   Clear
11:54 PM 35.1 °F 26.4 °F 12.9 °F 40% 30.03 in 10.0 mi WNW 12.7 mph 19.6 mph N/A   Clear